Home   Weather   Selkirk   Past weeks
Flag for Canada

Past Weather in Selkirk, Manitoba, Canada — Yesterday and Last 2 Weeks

Now
-10 °F

Extremely cold.


Feels Like: -10 °F
Forecast: 6 / -14 °F
Wind: 2 mph from Southwest

Location: Winnipeg The Forks Man

Current Time: Jan 21, 2019 at 12:16:32 am

Latest Report: Jan 20, 2019 at 11:00 pm


Visibility: N/A

Pressure: 30.38 "Hg

Humidity: 54%

Dew Point: -22 °F

Location of SelkirkLocation

Past Weather in Selkirk — Graph

°F

Selkirk Temperature Yesterday

Maximum temperature yesterday: -7 °F (at 3:00 pm)
Minimum temperature yesterday: -24 °F (at 8:00 am)
Average temperature yesterday: -15 °F

High & Low Weather Summary for the Past Weeks

 TemperatureHumidityPressure
High34 °F (Jan 7, 2:00 pm)94% (Jan 7, 8:00 am)30.66 "Hg (Jan 7, 8:00 am)
Low-24 °F (Jan 20, 8:00 am)50% (Jan 20, 3:00 pm)29.33 "Hg (Jan 7, 1:00 pm)
Average7 °F73%30.29 "Hg
* Reported Jan 5 11:00 pm — Jan 20 11:00 pm, Selkirk. Weather by CustomWeather, © 2019

Note: Actual official high and low records may vary slightly from our data, if they occured in-between our weather recording intervals... More about our weather records

Advertising

Selkirk Weather History for the Previous 24 Hours

Scroll right to see more
 ConditionsComfort  
Time TempWeatherWind HumidityBarometerVisibility
11:00 pm
Sun, Jan 20
-10 °FExtremely cold.2 mph54%30.38 "HgN/A
10:00 pm-11 °FExtremely cold.2 mph58%30.40 "HgN/A
9:00 pm-9 °FFrigid.2 mph55%30.43 "HgN/A
8:00 pm-9 °FFrigid.2 mph55%30.47 "HgN/A
7:00 pm-8 °FFrigid.1 mph51%30.50 "HgN/A
6:00 pm-10 °FFrigid.2 mph56%30.51 "HgN/A
5:00 pm-8 °FFrigid.3 mph53%30.53 "HgN/A
4:00 pm-7 °FFrigid.3 mph52%30.55 "HgN/A
3:00 pm-7 °FFrigid.3 mph50%30.58 "HgN/A
2:00 pm-9 °FFrigid.2 mph57%30.59 "HgN/A
1:00 pm-11 °FExtremely cold.2 mph60%30.62 "HgN/A
12:00 pm-11 °FExtremely cold.3 mph62%30.64 "HgN/A
11:00 am-15 °FExtremely cold.1 mph69%30.65 "HgN/A
10:00 am-19 °FExtremely cold.2 mph70%30.66 "HgN/A
9:00 am-24 °FExtremely cold.2 mph68%30.66 "HgN/A
8:00 am-24 °FExtremely cold.2 mph68%30.65 "HgN/A
7:00 am-23 °FExtremely cold.1 mph68%30.65 "HgN/A
6:00 am-22 °FExtremely cold.2 mph69%30.65 "HgN/A
5:00 am-23 °FExtremely cold.1 mph69%30.63 "HgN/A
4:00 am-22 °FExtremely cold.No wind69%30.64 "HgN/A
3:00 am-22 °FExtremely cold.1 mph69%30.62 "HgN/A
2:00 am-22 °FExtremely cold.3 mph68%30.61 "HgN/A
1:00 am-20 °FExtremely cold.2 mph70%30.60 "HgN/A
12:00 am-18 °FExtremely cold.2 mph63%30.60 "HgN/A
Weather by CustomWeather, © 2019

See weather overview

LIVE TOTAL LUNAR ECLIPSE – Watch the eclipse as it happens